Theta_e
310 310 309 309 308 308 307 306 306 305 305 306 306 306 306 306 306 307 312 313 313 312 314 313 310 308 307 313 313 312 311 311 308 308 316 315 314 314 315 315 316 315 317 316 316 315 316
309 309 309 309 309 308 308 308 307 306 306 305 305 306 305 306 306 306 310 313 313 311 311 311 309 308 311 312 311 313 310 312 311 310 315 315 315 314 314 315 315 316 316 315 315 316 316
308 308 307 306 306 306 307 307 307 306 305 305 304 305 305 305 306 306 308 311 313 310 309 309 307 307 312 312 312 319 313 314 313 313 313 314 314 314 314 314 314 315 315 315 315 316 315
307 306 306 305 306 306 306 305 304 304 303 303 303 302 304 304 305 305 308 311 312 311 307 307 306 309 312 310 312 319 315 313 312 313 313 314 314 314 314 315 315 314 314 315 315 315 315
306 306 303 303 305 306 305 306 305 302 301 300 300 300 301 303 303 305 308 311 311 311 307 306 306 313 312 309 309 318 316 313 313 313 313 313 312 314 314 315 314 314 315 315 315 315 314
303 305 305 305 304 304 305 304 305 303 300 298 298 299 298 300 301 304 309 311 311 309 306 307 312 311 309 309 312 317 315 314 312 312 312 313 314 314 313 313 316 316 315 314 315 315 314
303 302 304 304 305 305 304 303 303 303 301 298 297 297 297 298 299 302 311 312 315 315 313 312 311 312 310 311 313 314 313 313 312 312 313 313 314 314 314 313 314 315 314 315 315 315 313
300 303 304 304 303 303 303 304 302 301 301 298 296 296 296 297 298 300 311 316 315 314 315 312 312 311 311 311 311 312 312 312 313 313 313 313 313 314 314 315 314 314 313 315 315 315 311
301 302 303 302 301 301 302 303 302 300 298 296 296 296 296 296 297 298 306 312 313 312 315 313 312 311 310 311 312 312 312 312 313 313 313 314 315 313 314 315 314 314 313 313 315 314 310
302 302 302 302 300 302 301 299 300 299 296 296 296 296 296 296 301 300 299 305 312 311 315 313 313 313 311 312 312 311 312 312 313 313 313 314 313 314 314 314 313 314 314 315 316 314 314
302 302 301 301 300 301 299 297 299 296 296 296 296 296 296 299 310 311 313 306 310 312 316 314 313 313 312 312 310 310 310 312 313 313 313 315 313 313 314 314 313 315 314 315 315 314 315
298 300 300 299 300 299 298 295 295 295 296 301 300 297 303 306 303 312 312 312 312 316 314 315 312 312 313 313 312 310 310 311 312 314 313 314 313 313 314 313 313 314 314 315 315 315 316
299 299 300 298 299 298 297 294 294 295 300 300 301 306 309 305 311 309 312 313 314 312 314 315 313 313 313 313 312 311 311 311 312 313 314 313 313 312 312 313 313 314 316 318 318 318 318
298 299 299 300 297 297 295 294 294 294 302 304 303 305 310 303 311 313 313 315 316 310 315 315 314 314 315 314 314 313 312 312 312 313 315 314 315 313 313 314 314 314 316 317 320 318 316
298 298 298 298 297 296 293 293 294 295 303 305 306 307 306 309 310 313 315 315 312 314 314 315 314 315 316 314 313 313 312 313 310 309 315 314 315 309 308 310 311 315 315 314 316 316 315
297 297 297 297 296 296 293 293 294 295 300 306 310 311 303 312 311 313 315 314 309 306 309 313 315 315 316 315 314 314 313 307 307 304 306 310 314 310 307 310 310 312 311 315 315 318 317
296 297 296 297 297 294 292 292 294 295 296 307 307 311 307 313 314 314 314 310 305 304 306 308 314 314 314 315 314 314 313 303 301 304 303 303 309 305 307 302 306 311 313 312 312 314 315
297 296 296 296 295 293 291 292 293 295 297 308 310 308 310 314 310 311 311 303 300 301 301 303 305 305 308 310 311 310 304 299 296 299 303 299 303 303 302 300 299 299 300 304 310 311 307
296 296 296 295 295 293 292 292 293 295 296 308 306 302 306 307 310 307 300 298 298 300 298 300 301 301 300 303 305 301 297 296 297 298 299 297 299 300 302 301 300 299 297 299 302 302 304
296 296 294 294 294 294 292 292 292 294 296 302 299 302 302 307 302 307 302 300 297 296 296 296 297 298 298 300 302 299 296 295 297 297 298 298 299 300 301 300 300 298 296 296 296 296 296
296 296 294 293 293 293 292 292 292 294 295 298 297 298 297 303 302 304 304 300 297 296 296 296 296 297 298 298 298 298 295 295 294 296 295 298 296 297 294 295 295 293 293 293 294 287 291
295 295 294 293 293 293 292 291 292 293 295 295 297 297 297 296 297 300 299 299 297 295 295 295 296 295 296 295 296 297 295 295 295 295 295 294 296 296 294 292 293 290 289 290 290 286 283
293 294 293 293 292 292 293 292 291 291 292 293 294 295 296 296 296 296 295 296 296 294 294 295 295 294 293 293 293 293 293 294 293 294 293 294 294 293 291 292 293 289 283 287 285 281 282
293 293 293 292 292 292 292 292 292 290 291 292 291 294 297 295 294 295 295 295 295 294 293 294 294 294 293 293 293 293 293 293 293 293 294 293 294 295 289 293 290 281 281 281 281 279 279
292 292 292 292 291 291 291 292 291 291 290 291 291 293 295 294 294 294 294 293 293 293 293 293 293 293 293 294 294 295 294 294 291 291 292 294 294 289 289 290 284 280 278 278 279 277 273
292 291 290 290 290 290 291 291 291 291 291 291 291 292 294 295 293 293 293 293 292 292 292 292 292 293 293 295 295 294 295 295 293 291 291 292 293 292 290 289 288 278 276 276 276 280 274
291 291 290 289 290 291 290 291 290 290 291 291 294 291 294 293 291 292 293 293 293 294 292 292 292 293 293 295 297 294 293 293 292 291 290 291 290 289 290 285 277 274 276 276 280 279 274
290 290 290 290 290 290 290 291 290 290 290 290 293 291 294 292 288 289 291 291 292 293 293 292 292 292 292 295 295 293 293 289 285 283 282 285 286 286 284 283 285 276 273 277 274 273 273
290 291 290 290 289 289 289 290 289 289 290 291 292 291 292 292 287 287 287 288 289 289 291 292 293 293 293 294 293 290 287 286 284 282 280 280 275 279 276 276 275 275 275 274 274 274 272
Wind_Speed
16 16 17 17 16 16 16 16 17 15 13 13 14 13 12 11 11 10 8 6 9 12 12 12 12 12 12 6 8 8 7 9 20 20 22 22 18 15 7 13 12 8 5 10 8 9 15
18 18 18 18 18 18 17 16 16 17 16 14 13 14 13 12 10 10 7 5 6 11 13 13 14 15 9 7 6 9 11 13 21 27 20 20 14 18 5 10 8 13 14 6 10 12 18
20 20 20 20 20 18 18 19 18 16 16 15 14 12 13 12 11 9 7 5 4 10 13 14 14 13 7 8 2 4 4 13 19 22 21 18 8 15 6 2 3 3 2 4 8 11 19
24 23 22 20 19 19 18 19 19 18 16 15 15 13 12 11 10 9 7 4 5 8 12 13 13 10 7 8 10 8 11 12 15 12 15 15 11 6 8 3 4 4 5 6 11 15 17
22 21 23 22 21 20 19 20 20 19 17 16 15 14 11 9 9 7 5 2 4 7 11 12 11 7 4 5 13 14 14 18 15 14 14 13 11 4 4 4 5 7 5 7 6 12 7
25 25 23 24 23 22 21 19 20 20 19 17 15 14 12 8 7 6 3 5 7 9 13 12 3 4 9 8 13 16 14 18 12 14 10 7 6 4 3 5 6 6 6 9 10 8 9
19 21 22 21 23 23 22 22 21 21 21 18 16 14 12 9 6 5 10 13 7 4 11 11 10 3 11 11 16 14 17 20 11 15 6 12 4 8 9 12 14 8 5 5 11 17 14
24 24 23 23 23 23 24 24 23 22 21 19 16 14 12 9 8 11 16 8 2 2 6 20 6 13 7 13 8 14 20 11 12 7 7 4 9 9 10 8 10 8 8 5 9 14 15
23 23 24 24 24 25 25 25 25 23 22 19 16 13 12 10 10 14 20 16 5 4 5 9 14 11 9 12 9 21 22 10 7 9 10 7 1 14 10 5 5 6 6 7 9 6 17
23 24 25 25 25 26 26 25 26 25 22 19 17 13 10 8 5 8 18 14 11 3 3 8 9 8 11 9 3 17 22 7 6 12 7 5 7 4 4 7 7 7 8 8 7 8 5
24 26 27 27 28 28 28 25 26 25 24 20 15 11 8 9 6 9 6 11 12 4 3 8 9 11 12 7 17 6 11 3 6 5 6 3 5 5 6 6 9 3 3 5 5 6 4
25 26 27 28 29 29 29 28 27 25 23 19 11 5 5 6 11 9 8 11 12 2 6 6 7 8 9 8 3 7 7 2 2 3 1 1 3 3 2 4 2 7 5 4 1 2 4
25 27 28 29 30 30 30 28 28 27 21 13 4 1 3 8 6 8 12 15 3 5 5 7 7 10 12 8 7 7 9 6 5 4 6 6 5 3 1 5 3 3 7 3 2 2 5
24 28 28 29 30 31 30 29 28 25 12 5 7 7 1 5 6 11 17 2 6 7 4 4 7 12 8 13 5 8 11 7 2 2 2 7 4 6 6 1 5 7 6 4 6 5 3
27 27 30 30 31 31 30 29 27 24 6 3 4 6 5 3 8 15 5 6 2 6 5 2 6 12 4 4 4 6 8 7 4 3 3 7 4 4 6 4 2 5 5 3 3 2 1
27 28 29 31 31 32 32 31 29 21 7 5 2 4 6 2 11 15 3 7 2 3 4 3 4 9 10 12 7 7 10 3 4 4 4 3 4 1 2 3 1 2 3 2 2 3 5
27 28 29 31 32 31 32 33 31 19 8 6 1 3 3 6 12 5 3 3 4 4 3 3 4 2 6 10 8 9 6 4 6 2 4 4 1 2 2 6 4 2 2 2 1 2 2
27 28 30 31 33 32 32 34 34 21 6 5 1 2 3 13 2 1 1 4 2 2 4 1 3 8 4 3 3 4 5 5 5 4 1 3 2 4 5 3 6 4 4 4 2 1 2
28 29 30 32 34 33 32 33 35 21 6 1 3 2 4 9 2 2 3 3 4 1 3 3 3 4 4 4 4 6 6 5 6 5 2 2 1 4 3 2 3 5 3 2 1 1 2
28 30 31 33 34 35 32 32 34 21 7 1 3 1 2 5 3 1 4 4 3 4 2 3 3 3 3 3 6 5 4 3 8 5 7 1 4 3 4 4 3 4 4 4 3 3 2
29 30 31 32 34 35 34 32 32 25 9 2 6 3 2 2 2 3 3 5 4 2 2 1 3 3 2 4 4 5 4 5 5 4 4 3 4 5 7 8 6 6 6 7 4 1 3
28 29 30 32 34 34 35 33 31 30 13 10 5 4 4 4 8 3 1 2 4 3 4 1 4 3 4 4 1 5 7 4 3 3 3 3 4 3 3 6 6 5 7 5 7 4 6
28 29 30 31 32 33 34 33 32 29 24 11 7 4 2 4 1 3 2 2 6 7 8 9 13 14 14 11 18 20 22 17 8 4 3 3 4 2 2 4 5 3 4 5 5 6 2
27 28 29 29 31 32 32 32 30 27 24 18 14 6 5 2 4 2 2 7 5 4 6 6 7 5 8 24 26 26 26 22 19 13 10 5 3 3 3 2 1 2 3 3 6 5 5
25 27 29 29 30 31 31 31 30 26 21 15 18 6 5 2 7 5 6 8 16 17 12 11 7 13 27 10 3 4 2 3 7 8 8 6 3 3 4 3 2 1 1 2 3 1 2
26 29 29 29 28 29 31 29 30 28 22 11 12 8 4 1 3 2 7 11 5 4 3 7 9 10 2 2 2 3 2 4 3 3 4 4 5 3 2 4 5 2 3 2 1 2 5
25 28 27 28 27 28 29 29 29 27 24 14 8 10 3 4 5 7 2 1 3 2 4 6 6 3 2 2 2 2 2 2 4 4 2 3 3 2 2 3 3 3 5 4 5 4 10
22 25 27 27 28 28 27 27 27 25 22 14 8 12 2 5 9 5 4 4 4 2 2 9 5 1 1 1 2 1 3 2 4 3 2 1 3 1 2 4 4 10 3 5 5 9 6
23 22 25 25 27 28 27 27 26 23 17 12 7 8 4 4 7 15 16 12 8 4 2 4 4 6 4 2 3 3 3 3 5 2 4 0 2 4 3 3 7 10 3 6 7 6 6
Wind_Direction
357 354 350 346 342 337 333 328 323 319 313 311 311 308 308 309 315 326 324 291 236 217 206 202 196 182 169 205 250 275 231 212 191 178 172 188 192 203 216 192 213 208 202 223 135 121 84
354 351 345 341 338 335 332 328 323 317 312 307 305 307 306 305 306 313 323 301 235 216 203 199 188 178 178 228 242 269 262 206 191 174 177 188 200 205 263 247 202 197 234 180 171 167 122
349 345 343 340 338 334 332 328 322 319 310 306 301 299 299 300 299 306 316 289 235 209 196 192 185 176 233 224 265 217 185 158 175 169 174 187 206 217 252 246 190 236 201 215 197 170 116
346 348 349 345 342 340 338 336 329 319 314 306 301 296 292 293 293 295 300 282 222 196 190 182 174 168 249 236 221 179 135 149 142 165 185 190 211 247 245 81 136 212 223 210 187 168 154
350 347 344 345 346 341 342 337 332 327 316 307 302 297 293 287 285 285 287 265 196 175 176 166 163 161 254 232 197 175 169 159 152 156 165 187 192 208 196 243 192 207 207 196 138 171 140
356 360 351 347 345 345 342 338 334 332 323 310 302 296 293 280 273 269 248 130 112 147 145 146 157 238 230 223 166 173 172 167 149 150 132 157 180 190 209 221 202 202 228 183 144 175 122
348 341 342 342 345 344 341 340 338 335 327 316 301 295 287 274 247 221 152 122 101 160 193 186 209 185 147 149 166 177 164 162 158 159 159 194 186 202 206 227 268 315 250 166 122 119 93
352 353 351 348 346 344 343 339 337 333 328 318 304 293 281 266 228 204 182 182 279 176 229 216 240 214 184 147 150 169 163 168 168 184 174 146 229 219 220 229 238 269 295 102 112 137 102
353 353 351 351 349 347 344 341 339 335 328 321 308 295 278 261 236 214 211 206 227 222 261 180 202 192 175 187 172 178 179 198 192 198 201 169 330 204 240 211 241 241 229 259 145 122 120
356 353 354 352 350 347 345 342 340 336 331 323 309 292 271 252 242 224 225 226 226 241 269 159 193 209 172 170 66 170 176 195 211 202 172 240 233 180 186 214 199 237 215 257 134 143 182
0 354 353 354 349 349 345 340 341 338 333 327 310 287 256 209 179 176 196 204 193 173 253 133 138 159 173 168 136 179 190 179 193 207 143 204 142 187 181 202 197 206 349 160 227 181 338
355 355 353 353 350 349 347 346 343 339 339 332 313 268 217 213 208 201 204 162 148 218 233 158 137 172 169 152 114 124 167 159 360 158 289 14 5 188 227 58 6 126 117 96 108 164 258
359 356 357 354 352 350 349 349 348 342 345 348 48 84 194 176 198 200 167 147 174 233 141 165 180 166 170 164 142 164 168 181 164 150 194 179 178 99 248 107 16 225 155 131 176 210 228
2 359 357 357 353 352 351 351 350 346 354 76 63 51 85 180 197 170 160 210 239 188 69 56 139 165 173 150 131 178 166 171 29 321 199 178 180 153 167 309 179 200 202 168 209 190 207
3 0 0 360 356 355 354 351 352 349 339 156 28 9 11 226 189 165 167 217 347 13 339 123 160 176 129 157 182 165 189 165 73 31 257 193 129 85 32 1 22 181 226 352 323 257 265
7 6 3 0 0 359 356 353 354 350 322 202 70 291 295 202 171 168 221 226 87 23 340 294 184 205 181 182 163 192 174 23 116 42 329 40 110 13 122 285 95 357 341 128 228 226 226
9 5 4 3 3 3 1 357 356 354 330 216 271 261 342 149 154 183 228 99 122 62 357 358 344 123 309 168 200 187 139 33 14 71 314 9 71 104 165 24 360 22 185 253 271 259 241
11 6 6 5 5 6 6 1 360 358 355 186 246 248 152 151 168 246 89 19 38 95 28 65 33 26 27 14 17 64 114 44 351 293 96 52 40 84 79 79 26 58 34 12 127 306 56
8 10 7 7 6 6 10 6 4 0 9 140 306 64 173 186 197 144 127 75 46 86 34 6 107 47 13 48 87 91 85 32 0 40 51 326 355 107 125 170 92 62 11 357 135 36 251
11 10 7 7 7 7 11 11 9 10 8 153 347 255 93 196 317 143 157 150 115 40 74 51 116 92 97 61 39 116 115 56 40 76 45 13 62 79 163 93 97 104 57 19 68 102 291
10 10 8 7 7 8 9 12 15 15 24 53 18 57 17 18 33 330 136 141 136 131 72 3 77 41 125 134 119 114 103 138 52 34 44 63 97 85 57 72 67 71 54 28 74 76 121
6 8 9 6 6 7 8 9 14 22 27 59 42 10 43 34 334 100 253 140 133 116 357 61 116 120 65 80 6 157 137 149 118 58 71 357 112 104 78 61 90 87 37 84 80 90 94
5 5 5 4 5 7 8 10 11 16 31 44 30 357 343 11 256 307 35 92 114 123 5 102 111 94 84 82 78 76 77 74 71 90 83 76 122 109 94 109 138 55 12 20 100 54 346
3 3 4 4 3 4 6 7 10 14 23 31 14 359 311 76 40 37 83 95 100 43 132 64 58 97 132 115 93 81 79 71 60 39 18 120 75 58 141 107 360 134 68 31 88 79 79
6 2 2 3 2 0 2 3 7 8 13 19 17 16 349 77 104 93 95 104 96 89 78 60 24 139 142 156 115 128 97 76 22 24 14 54 90 78 129 145 124 303 356 161 145 175 12
6 359 359 360 359 2 359 359 3 3 5 9 18 17 26 217 28 81 145 147 145 111 85 102 103 145 140 245 95 136 151 98 113 88 10 37 31 100 131 139 201 218 145 173 284 306 165
356 354 353 357 1 358 358 357 358 359 360 6 350 10 50 100 25 13 34 344 69 90 91 122 151 158 278 237 96 91 87 2 133 104 148 84 19 119 185 108 290 203 140 153 88 230 152
352 348 349 357 355 352 356 353 351 354 0 1 4 360 71 88 45 39 63 57 11 95 155 137 119 265 202 189 116 112 93 68 81 34 41 98 131 112 43 75 282 156 97 143 161 150 185
357 353 347 348 348 350 352 345 347 352 4 11 17 12 49 115 106 79 71 60 75 61 63 135 58 67 38 100 71 105 90 69 160 134 34 247 155 147 119 196 123 155 139 156 167 181 211